Alpine, TX

4:17 PM CDT on June 27, 2017 (GMT -0500)
Alpine

Weather History for KE38 - December, 2012

Change the Weather History Date:

Monday, December 31, 2012

  Actual Average (KMRF) Record (KMRF)
Temperature  
Mean Temperature 44 °F -  
Max Temperature 57 °F 55 °F 73 °F (2011)
Min Temperature 31 °F 24 °F 19 °F (2000)
Degree Days  
Heating Degree Days 20    
Moisture  
Dew Point 30 °F    
Average Humidity 51    
Maximum Humidity 74    
Minimum Humidity 28    
Precipitation  
Precipitation 0.00 in - - ()
Sea Level Pressure  
Sea Level Pressure 30.04 in    
Wind  
Wind Speed 13 mph (SSW)    
Max Wind Speed 23 mph    
Max Gust Speed 30 mph    
Visibility 10 miles    
Events      
Averages and records for this station are not official NWS values.
T = Trace of Precipitation, MM = Missing Value Source: NWS Daily Summary

Daily Weather History Graph

Daily Weather History Graph

Search for Another Location

Airport or City:

Trip Planner

Search our weather history database for the weather conditions in past years. The results will help you decide how hot, cold, wet, or windy it might be!

Date:

Astronomy

Dec. 31, 2012 Rise Set
Actual Time 7:51 AM CST 6:04 PM CST
Civil Twilight 7:24 AM CST 6:31 PM CST
Nautical Twilight 6:55 AM CST 7:01 PM CST
Astronomical Twilight 6:25 AM CST 7:30 PM CST
Moon 9:22 PM CST (12/31) 9:47 AM CST (12/31)
Length of Visible Light 11h 06m
Length of Day
10h 13m
Waning Gibbous, 90% of the Moon is Illuminated
Dec 31
Waning Gibbous
Jan 4
Last Quarter
Jan 11
New
Jan 18
First Quarter
Jan 26
Full

Hourly Weather History & Observations

Time (CST) Temp. Windchill Dew Point Humidity Pressure Visibility Wind Dir Wind Speed Gust Speed Precip Events Conditions
12:15 AM 49.8 °F - 35.8 °F 59% 30.00 in 10.0 mi South 19.6 mph 24.2 mph N/A   Clear
12:35 AM 50.0 °F - 34.5 °F 55% 29.99 in 10.0 mi South 21.9 mph 27.6 mph N/A   Scattered Clouds
12:55 AM 49.6 °F - 33.4 °F 54% 30.00 in 10.0 mi South 23.0 mph 29.9 mph N/A   Scattered Clouds
1:15 AM 49.5 °F - 33.1 °F 53% 30.00 in 10.0 mi SSW 15.0 mph 26.5 mph N/A   Scattered Clouds
1:35 AM 48.4 °F - 32.9 °F 55% 29.99 in 10.0 mi South 10.4 mph - N/A   Scattered Clouds
1:55 AM 48.2 °F - 33.3 °F 56% 29.98 in 10.0 mi South 15.0 mph 20.7 mph N/A   Scattered Clouds
2:15 AM 48.9 °F - 33.8 °F 56% 29.97 in 10.0 mi South 17.3 mph 26.5 mph N/A   Clear
2:35 AM 48.6 °F - 33.8 °F 57% 29.98 in 10.0 mi South 15.0 mph 20.7 mph N/A   Clear
2:55 AM 48.2 °F - 33.8 °F 58% 29.98 in 10.0 mi South 18.4 mph - N/A   Clear
3:15 AM 47.7 °F - 33.8 °F 59% 29.98 in 10.0 mi South 13.8 mph - N/A   Clear
3:35 AM 47.5 °F - 34.0 °F 59% 29.98 in 10.0 mi South 12.7 mph - N/A   Clear
3:55 AM 47.3 °F - 34.3 °F 61% 29.98 in 10.0 mi South 15.0 mph - N/A   Clear
4:15 AM 47.8 °F - 34.9 °F 61% 29.98 in 10.0 mi South 19.6 mph 23.0 mph N/A   Clear
4:35 AM 49.3 °F - 35.8 °F 60% 29.97 in 10.0 mi South 21.9 mph 26.5 mph N/A   Clear
4:55 AM 49.5 °F - 35.8 °F 59% 29.98 in 10.0 mi South 13.8 mph 23.0 mph N/A   Clear
5:15 AM 49.6 °F - 36.0 °F 59% 29.99 in 10.0 mi South 10.4 mph 19.6 mph N/A   Clear
5:35 AM 49.8 °F - 36.3 °F 60% 30.00 in 10.0 mi South 11.5 mph 18.4 mph N/A   Clear
5:55 AM 49.3 °F - 36.3 °F 61% 30.00 in 10.0 mi South 13.8 mph 19.6 mph N/A   Clear
6:15 AM 48.9 °F - 36.5 °F 62% 30.00 in 10.0 mi South 11.5 mph 17.3 mph N/A   Clear
6:35 AM 48.2 °F - 36.1 °F 63% 30.02 in 10.0 mi South 11.5 mph - N/A   Clear
6:55 AM 47.8 °F - 35.8 °F 63% 30.02 in 10.0 mi South 15.0 mph - N/A   Clear
7:15 AM 46.9 °F - 35.4 °F 64% 30.02 in 10.0 mi South 12.7 mph - N/A   Clear
7:35 AM 45.7 °F 39.8 °F 35.1 °F 66% 30.03 in 10.0 mi South 12.7 mph - N/A   Clear
7:55 AM 45.5 °F 39.9 °F 35.1 °F 67% 30.04 in 10.0 mi South 11.5 mph - N/A   Clear
8:15 AM 44.2 °F 38.8 °F 34.9 °F 70% 30.05 in 10.0 mi SW 10.4 mph - N/A   Clear
8:35 AM 43.2 °F 38.4 °F 34.7 °F 72% 30.06 in 10.0 mi SSW 8.1 mph - N/A   Clear
8:55 AM 42.8 °F 37.0 °F 34.9 °F 74% 30.07 in 10.0 mi South 10.4 mph - N/A   Clear
9:15 AM 43.7 °F 38.6 °F 34.3 °F 70% 30.07 in 10.0 mi SSW 9.2 mph - N/A   Clear
9:35 AM 44.1 °F 39.5 °F 33.3 °F 66% 30.07 in 10.0 mi South 8.1 mph - N/A   Clear
9:55 AM 46.0 °F 41.9 °F 32.9 °F 60% 30.08 in 10.0 mi South 8.1 mph - N/A   Clear
10:15 AM 49.5 °F - 31.8 °F 51% 30.09 in 10.0 mi South 10.4 mph - N/A   Clear
10:35 AM 51.4 °F - 29.3 °F 43% 30.09 in 10.0 mi SW 13.8 mph - N/A   Clear
10:55 AM 52.3 °F - 27.9 °F 39% 30.09 in 10.0 mi SSW 13.8 mph 17.3 mph N/A   Clear
11:15 AM 53.8 °F - 27.7 °F 37% 30.09 in 10.0 mi SW 13.8 mph - N/A   Clear
11:35 AM 54.1 °F - 28.2 °F 37% 30.08 in 10.0 mi SSW 12.7 mph 19.6 mph N/A   Clear
11:55 AM 54.7 °F - 29.3 °F 38% 30.07 in 10.0 mi SSW 12.7 mph 19.6 mph N/A   Clear
12:15 PM 55.6 °F - 28.2 °F 35% 30.06 in 10.0 mi SSW 11.5 mph 19.6 mph N/A   Clear
12:35 PM 56.3 °F - 26.6 °F 32% 30.05 in 10.0 mi SSW 11.5 mph 19.6 mph N/A   Clear
12:55 PM 56.7 °F - 25.9 °F 31% 30.04 in 10.0 mi SSW 16.1 mph 21.9 mph N/A   Clear
1:15 PM 56.8 °F - 25.7 °F 30% 30.03 in 10.0 mi SW 13.8 mph 20.7 mph N/A   Clear
1:35 PM 57.6 °F - 25.5 °F 29% 30.02 in 10.0 mi South 10.4 mph 19.6 mph N/A   Clear
1:55 PM 57.6 °F - 25.7 °F 29% 30.01 in 10.0 mi WSW 10.4 mph - N/A   Clear
2:15 PM 57.4 °F - 25.7 °F 30% 30.00 in 10.0 mi SSW 12.7 mph 24.2 mph N/A   Clear
2:35 PM 57.4 °F - 25.9 °F 30% 30.00 in 10.0 mi South 3.5 mph - N/A   Clear
2:55 PM 57.4 °F - 25.7 °F 30% 30.01 in 10.0 mi SW 6.9 mph - N/A   Clear
3:15 PM 56.8 °F - 25.5 °F 30% 30.00 in 10.0 mi SW 6.9 mph - N/A   Clear
3:35 PM 56.8 °F - 25.3 °F 30% 30.00 in 10.0 mi SW 9.2 mph - N/A   Clear
3:55 PM 57.2 °F - 24.4 °F 28% 30.00 in 10.0 mi SW 8.1 mph - N/A   Clear
4:15 PM 57.0 °F - 24.1 °F 28% 30.01 in 10.0 mi SW 6.9 mph - N/A   Clear
4:35 PM 57.0 °F - 23.7 °F 28% 30.01 in 10.0 mi SW 5.8 mph - N/A   Clear
5:15 PM 55.9 °F - 24.4 °F 30% 30.02 in 10.0 mi WSW 5.8 mph - N/A   Clear
5:35 PM 55.0 °F - 24.3 °F 30% 30.02 in 10.0 mi WNW 4.6 mph - N/A   Clear
6:15 PM 50.7 °F - 24.4 °F 36% 30.04 in 10.0 mi NNE 10.4 mph - N/A   Clear
6:35 PM 49.5 °F - 24.1 °F 37% 30.04 in 10.0 mi NE 9.2 mph - N/A   Clear
6:55 PM 48.6 °F - 23.9 °F 38% 30.05 in 10.0 mi NNE 6.9 mph - N/A   Clear
7:15 PM 47.3 °F - 24.8 °F 41% 30.06 in 10.0 mi NNE 4.6 mph - N/A   Clear
7:35 PM 45.7 °F 44.4 °F 26.8 °F 48% 30.07 in 10.0 mi NNE 3.5 mph - N/A   Clear
7:55 PM 44.4 °F - 27.5 °F 52% 30.08 in 10.0 mi Calm Calm - N/A   Clear
8:15 PM 44.2 °F 41.8 °F 28.4 °F 54% 30.09 in 10.0 mi NNE 4.6 mph - N/A   Clear
8:35 PM 43.9 °F 41.3 °F 29.5 °F 57% 30.10 in 10.0 mi NNE 4.6 mph - N/A   Clear
8:55 PM 43.0 °F 41.3 °F 28.6 °F 57% 30.11 in 10.0 mi NNE 3.5 mph - N/A   Clear
9:15 PM 42.6 °F 40.9 °F 28.6 °F 58% 30.11 in 10.0 mi NNE 3.5 mph - N/A   Clear
9:35 PM 40.8 °F - 28.4 °F 61% 30.12 in 10.0 mi Calm Calm - N/A   Clear
9:55 PM 40.3 °F 37.1 °F 26.4 °F 58% 30.13 in 10.0 mi NNE 4.6 mph - N/A   Clear
10:15 PM 39.6 °F - 25.2 °F 56% 30.14 in 10.0 mi Calm Calm - N/A   Clear
10:35 PM 36.5 °F 33.9 °F 24.3 °F 61% 30.15 in 10.0 mi South 3.5 mph - N/A   Clear
11:15 PM 32.9 °F 28.5 °F 23.5 °F 68% 30.15 in 10.0 mi SE 4.6 mph - N/A   Clear
11:35 PM 32.5 °F 27.1 °F 23.5 °F 69% 30.15 in 10.0 mi South 5.8 mph - N/A   Clear
11:55 PM 31.6 °F 25.1 °F 23.7 °F 73% 30.16 in 10.0 mi SSW 6.9 mph - N/A   Clear